Location: Curupao
(10.4996°N, 66.6442°W)
Time: 03:19:06
(UTC+00:00)

COSMOS 2455 - Pass Details

Date: 23 May 2024
Orbit: 901 x 907 km, 67.1° (Epoch: 17 April)

Event Time Altitude Azimuth Distance (km) Brightness Sun altitude
Exits shadow 08:11:34 57° 288° (WNW) 1,058 2.9 -25.8°
Maximum altitude 08:11:37 57° 290° (WNW) 1,058 2.9 -25.8°
Drops below altitude 10° 08:17:30 10° 9° (N) 2,581 5.7 -24.6°
Sets 08:20:03 0° 13° (NNE) 3,521 6.5 -24.0°
